Location: Larrial
(48.2758°N, 4.5331°W)
Time: 00:22:23
(UTC+00:00)

X-37B - Visible Passes

Search period start: 22 September 2021 00:00
Search period end: 02 October 2021 00:00
Orbit: 381 x 393 km, 45.0° (Epoch: 29 August)

Date Brightness Start Highest point End Pass type
(mag) Time Alt. Az. Time Alt. Az. Time Alt. Az.
22 Sep 3.0 04:55:28 10° SSW 04:57:34 17° SSE 04:59:41 10° ESE visible
23 Sep 3.4 03:59:30 11° SE 03:59:30 11° SE 04:00:17 10° SE visible
23 Sep 1.9 05:32:35 10° SW 05:35:28 32° SSE 05:38:20 10° E visible
24 Sep 2.3 04:36:10 20° S 04:37:13 24° SSE 04:39:51 10° ESE visible
25 Sep 3.4 03:40:29 13° ESE 03:40:29 13° ESE 03:41:10 10° ESE visible
25 Sep 1.5 05:12:46 14° WSW 05:15:12 40° S 05:18:12 10° E visible
26 Sep 1.8 04:17:04 32° SSE 04:17:04 32° SSE 04:19:48 10° E visible
27 Sep 1.2 04:53:37 27° SW 04:54:57 45° S 04:58:01 10° ESE visible
28 Sep 2.4 03:57:54 26° ESE 03:57:54 26° ESE 03:59:40 10° E visible
28 Sep 1.3 05:30:11 11° W 05:33:02 41° S 05:36:03 10° ESE visible
29 Sep 1.0 04:34:29 44° SSW 04:34:44 46° S 04:37:47 10° ESE visible
30 Sep 3.5 03:38:49 15° ESE 03:38:49 15° ESE 03:39:28 10° ESE visible
30 Sep 1.5 05:11:07 19° WSW 05:12:47 33° SSW 05:15:41 10° SE visible
01 Oct 2.0 04:15:30 30° SE 04:15:30 30° SE 04:17:30 10° ESE visible
